Latest Weather Observations for Bellambi

IDN60901

Issued at 6:41 pm EDT Tuesday 20 November 2018 (issued every 10 minutes, with the page automatically refreshed every 10 minutes)

About weather observations | Map of Sydney area stations | Latest observations for Sydney area | Other Formats
Station Details ID: 068228 Name: BELLAMBI AWS Lat: -34.37 Lon: 150.93 Height: 10.0 m
Data from the previous 72 hours. | See also: Recent months at Bellambi
Date/Time
EDT
Temp
°C
App
Temp
°C
Dew
Point
°C
Rel
Hum
%
Delta-T
°C
Wind Press
QNH
hPa
Press
MSL
hPa
Rain since
9am
mm
Dir  Spd
km/h
Gust
km/h
Spd
kts
Gust
kts
20/06:30pm 20.0 16.0 16.8 82 1.9 NE 33 39 18 21 - - 0.0
20/06:00pm 20.2 16.3 16.4 79 2.3 NE 32 37 17 20 - - 0.0
20/05:30pm 20.6 16.0 16.0 75 2.8 NE 35 43 19 23 - - 0.0
20/05:00pm 20.3 15.4 16.3 78 2.4 NE 37 41 20 22 - - 0.0
20/04:30pm 19.9 14.9 16.0 78 2.3 NE 37 44 20 24 - - 0.0
20/04:00pm 20.9 15.4 15.7 72 3.1 NE 39 44 21 24 - - 0.0
20/03:30pm 21.2 16.2 16.0 72 3.1 NE 37 46 20 25 - - 0.0
20/03:00pm 21.2 16.2 16.2 73 3.0 NE 37 44 20 24 - - 0.0
20/02:30pm 21.3 16.0 16.3 73 3.0 NE 39 48 21 26 - - 0.0
20/02:00pm 21.1 15.5 15.4 70 3.4 NE 39 48 21 26 - - 0.0
20/01:30pm 21.5 16.1 16.0 71 3.3 NE 39 46 21 25 - - 0.0
20/01:00pm 21.2 15.5 15.1 68 3.6 NE 39 44 21 24 - - 0.0
20/12:30pm 21.6 16.5 15.7 69 3.5 NE 37 43 20 23 - - 0.0
20/12:00pm 21.5 16.4 15.8 70 3.4 NE 37 43 20 23 - - 0.0
20/11:30am 21.4 16.6 15.7 70 3.4 NE 35 41 19 22 - - 0.0
20/11:00am 21.4 17.1 15.9 71 3.3 NE 33 39 18 21 - - 0.0
20/10:30am 21.4 18.0 15.7 70 3.4 ENE 28 32 15 17 - - 0.0
20/10:00am 21.6 18.6 14.7 65 4.1 NE 24 28 13 15 - - 0.0
20/09:30am 20.9 17.9 13.8 64 4.1 NNE 22 26 12 14 - - 0.0
20/09:00am 20.7 18.0 13.4 63 4.2 N 20 26 11 14 - - 0.0
20/08:30am 20.2 17.2 12.7 62 4.2 N 20 30 11 16 - - 0.0
20/08:00am 19.4 16.8 13.3 68 3.5 N 19 24 10 13 - - 0.0
20/07:30am 18.9 15.5 13.7 72 3.0 N 24 30 13 16 - - 0.0
20/07:00am 18.9 15.9 13.7 72 3.0 N 22 26 12 14 - - 0.0
20/06:30am 18.0 15.9 13.7 76 2.4 N 17 20 9 11 - - 0.0
20/06:00am 17.6 15.0 13.3 76 2.4 NNW 19 24 10 13 - - 0.0
20/05:30am 17.3 15.2 13.6 79 2.1 NNW 17 20 9 11 - - 0.0
20/05:00am 16.6 15.6 13.3 81 1.8 NNW 11 13 6 7 - - 0.0
20/04:30am 16.9 16.0 13.6 81 1.9 NNW 11 15 6 8 - - 0.0
20/04:00am 17.0 15.8 14.1 83 1.7 NNW 13 15 7 8 - - 0.0
20/03:30am 16.7 16.2 13.8 83 1.6 NNW 9 11 5 6 - - 0.0
20/03:00am 16.5 16.2 13.2 81 1.8 NW 7 9 4 5 - - 0.0
20/02:30am 16.6 16.2 13.1 80 2.0 NW 7 11 4 6 - - 0.0
20/02:00am 17.0 16.7 13.3 79 2.1 NNW 7 11 4 6 - - 0.0
20/01:30am 17.0 16.6 12.9 77 2.3 NW 7 11 4 6 - - 0.0
20/01:00am 17.5 16.1 13.4 77 2.3 NNW 13 17 7 9 - - 0.0
20/12:30am 17.7 15.9 13.4 76 2.4 NNW 15 17 8 9 - - 0.0
20/12:00am 17.8 16.0 13.3 75 2.5 NNW 15 19 8 10 - - 0.0
 
Date/Time
EDT
Temp
°C
App
Temp
°C
Dew
Point
°C
Rel
Hum
%
Delta-T
°C
Wind Press
QNH
hPa
Press
MSL
hPa
Rain since
9am
mm
Dir  Spd
km/h
Gust
km/h
Spd
kts
Gust
kts
19/11:30pm 17.7 16.2 13.2 75 2.5 NNW 13 15 7 8 - - 0.0
19/11:00pm 17.3 15.7 12.8 75 2.5 NNW 13 17 7 9 - - 0.0
19/10:30pm 17.7 16.2 13.0 74 2.6 NNW 13 17 7 9 - - 0.0
19/10:00pm 17.8 16.2 12.7 72 2.8 NNW 13 15 7 8 - - 0.0
19/09:30pm 18.0 16.9 13.1 73 2.8 NNW 11 13 6 7 - - 0.0
19/09:00pm 18.4 17.0 13.3 72 2.9 N 13 17 7 9 - - 0.0
19/08:30pm 18.6 16.1 13.5 72 2.9 NNE 19 24 10 13 - - 0.0
19/08:00pm 18.6 15.9 13.5 72 2.9 NE 20 22 11 12 - - 0.0
19/07:30pm 18.6 15.9 13.0 70 3.2 NE 19 22 10 12 - - 0.0
19/07:00pm 19.0 16.4 13.2 69 3.3 NE 19 22 10 12 - - 0.0
19/06:30pm 19.3 16.7 13.3 68 3.4 NE 19 22 10 12 - - 0.0
19/06:00pm 20.0 17.5 13.5 66 3.7 NE 19 22 10 12 - - 0.0
19/05:30pm 20.1 17.1 12.6 62 4.2 NE 20 24 11 13 - - 0.0
19/05:00pm 20.3 17.1 12.0 59 4.6 NE 20 22 11 12 - - 0.0
19/04:30pm 20.7 17.7 12.7 60 4.5 NE 20 24 11 13 - - 0.0
19/04:00pm 21.0 17.7 12.7 59 4.7 ENE 22 26 12 14 - - 0.0
19/03:30pm 21.3 18.1 13.2 60 4.6 ENE 22 26 12 14 - - 0.0
19/03:00pm 21.3 18.1 13.2 60 4.6 ENE 22 26 12 14 - - 0.0
19/02:30pm 21.3 18.6 13.5 61 4.5 ENE 20 22 11 12 - - 0.0
19/02:00pm 21.5 18.7 13.2 59 4.8 NE 20 22 11 12 - - 0.0
19/01:30pm 20.8 18.3 13.5 63 4.2 ENE 19 20 10 11 - - 0.0
19/01:00pm 21.2 19.5 14.6 66 3.9 NE 17 20 9 11 - - 0.0
19/12:30pm 20.4 18.9 14.1 67 3.6 ENE 15 17 8 9 - - 0.0
19/12:00pm 19.7 18.4 13.6 68 3.5 ENE 13 19 7 10 - - 0.0
19/11:30am 19.3 18.1 13.9 71 3.1 E 13 17 7 9 - - 0.0
19/11:00am 19.7 18.9 14.1 70 3.2 E 11 15 6 8 - - 0.0
19/10:30am 19.5 19.0 13.7 69 3.3 ESE 9 13 5 7 - - 0.0
19/10:00am 19.7 18.5 14.1 70 3.2 E 13 15 7 8 - - 0.0
19/09:30am 20.0 18.9 14.4 70 3.3 ESE 13 17 7 9 - - 0.0
19/09:00am 19.4 18.0 13.3 68 3.5 ESE 13 13 7 7 - - 0.0
19/08:30am 19.0 18.1 12.7 67 3.5 E 9 11 5 6 - - 0.0
19/08:00am 17.8 17.3 12.0 69 3.2 N 6 7 3 4 - - 0.0
19/07:30am 16.8 17.3 11.5 71 2.9 CALM 0 0 0 0 - - 0.0
19/07:00am 15.7 15.6 12.1 79 2.0 NW 4 7 2 4 - - 0.0
19/06:30am 14.3 13.1 11.5 83 1.5 W 9 11 5 6 - - 0.0
19/06:00am 14.0 13.0 11.0 82 1.6 SW 7 9 4 5 - - 0.0
19/05:30am 14.8 14.1 11.9 83 1.6 SSW 7 9 4 5 - - 0.0
19/05:00am 14.6 14.0 11.7 83 1.6 WSW 6 7 3 4 - - 0.0
19/04:30am 14.4 14.6 11.7 84 1.4 WNW 2 7 1 4 - - 0.0
19/04:00am 13.9 13.2 11.4 85 1.3 WSW 6 9 3 5 - - 0.0
19/03:30am 13.9 13.1 11.2 84 1.4 WSW 6 9 3 5 - - 0.0
19/03:00am 14.0 13.6 11.0 82 1.6 W 4 9 2 5 - - 0.0
19/02:30am 14.2 12.4 11.0 81 1.7 W 11 13 6 7 - - 0.0
19/02:00am 14.6 13.2 11.0 79 1.9 WNW 9 13 5 7 - - 0.0
19/01:30am 14.9 13.6 11.1 78 2.0 WNW 9 11 5 6 - - 0.0
19/01:00am 15.6 14.3 11.2 75 2.4 WNW 9 11 5 6 - - 0.0
19/12:30am 16.9 15.1 12.0 73 2.7 ENE 13 15 7 8 - - 0.0
19/12:00am 17.2 15.5 12.3 73 2.7 ENE 13 19 7 10 - - 0.0
 
Date/Time
EDT
Temp
°C
App
Temp
°C
Dew
Point
°C
Rel
Hum
%
Delta-T
°C
Wind Press
QNH
hPa
Press
MSL
hPa
Rain since
9am
mm
Dir  Spd
km/h
Gust
km/h
Spd
kts
Gust
kts
18/11:30pm 17.3 15.1 12.0 71 2.9 ENE 15 17 8 9 - - 0.0
18/11:00pm 17.3 14.3 12.0 71 2.9 ENE 19 22 10 12 - - 0.0
18/10:30pm 17.4 14.9 12.3 72 2.8 E 17 20 9 11 - - 0.0
18/10:00pm 17.4 15.0 12.5 73 2.7 E 17 20 9 11 - - 0.0
18/09:30pm 17.7 14.8 12.8 73 2.7 E 20 24 11 13 - - 0.0
18/09:00pm 17.6 14.8 12.5 72 2.8 E 19 22 10 12 - - 0.0
18/08:30pm 17.7 14.9 12.6 72 2.8 E 19 20 10 11 - - 0.0
18/08:00pm 17.8 15.0 12.7 72 2.8 E 19 22 10 12 - - 0.0
18/07:30pm 17.9 14.9 12.4 70 3.1 SE 20 24 11 13 - - 0.0
18/07:00pm 18.2 15.0 12.0 67 3.4 SE 20 24 11 13 - - 0.0
18/06:30pm 18.4 14.9 12.2 67 3.4 ESE 22 24 12 13 - - 0.0
18/06:00pm 18.5 15.4 11.6 64 3.8 ESE 19 22 10 12 - - 0.0
18/05:30pm 18.9 15.7 11.9 64 3.9 SE 20 26 11 14 - - 0.0
18/05:00pm 18.9 15.6 11.5 62 4.1 SE 20 24 11 13 - - 0.0
18/04:30pm 19.1 15.9 11.4 61 4.2 SE 19 22 10 12 - - 0.0
18/04:00pm 19.3 16.0 11.6 61 4.2 SE 20 24 11 13 - - 0.0
18/03:30pm 19.2 15.5 11.5 61 4.2 SE 22 26 12 14 - - 0.0
18/03:00pm 19.8 16.0 11.3 58 4.7 SE 22 26 12 14 - - 0.0
18/02:30pm 20.2 16.6 11.9 59 4.6 SSE 22 28 12 15 - - 0.0
18/02:00pm 20.5 17.0 12.2 59 4.6 SE 22 28 12 15 - - 0.0
18/01:30pm 20.0 16.2 11.2 57 4.8 SE 22 28 12 15 - - 0.0
18/01:00pm 20.4 17.4 12.4 60 4.5 SSE 20 24 11 13 - - 0.0
18/12:30pm 20.6 17.7 12.3 59 4.7 SSE 19 22 10 12 - - 0.0
18/12:00pm 20.4 17.4 12.1 59 4.6 SSE 19 24 10 13 - - 0.0
18/11:30am 20.2 16.9 11.7 58 4.7 SSE 20 24 11 13 - - 0.0
18/11:00am 19.8 16.6 11.3 58 4.7 S 19 24 10 13 - - 0.0
18/10:30am 19.3 15.9 11.1 59 4.5 S 20 24 11 13 - - 0.0
18/10:00am 18.9 15.5 11.2 61 4.2 S 20 24 11 13 - - 0.0
18/09:30am 18.3 14.8 10.9 62 4.0 S 20 24 11 13 - - 0.0
18/09:00am 18.3 14.8 10.9 62 4.0 S 20 26 11 14 - - 0.6
18/08:30am 18.3 14.8 10.9 62 4.0 S 20 24 11 13 - - 0.6
18/08:00am 18.1 14.6 11.0 63 3.8 S 20 26 11 14 - - 0.6
18/07:30am 17.2 14.8 11.5 69 3.1 SSW 15 20 8 11 - - 0.6
18/07:00am 17.3 13.9 10.7 65 3.5 SSE 19 24 10 13 - - 0.6
18/06:30am 17.2 13.3 10.8 66 3.4 SSE 22 28 12 15 - - 0.6
18/06:00am 16.8 12.7 10.2 65 3.5 SSE 22 28 12 15 - - 0.6
18/05:30am 16.6 12.1 10.0 65 3.5 SSE 24 32 13 17 - - 0.6
18/05:00am 16.8 12.5 10.6 67 3.3 SSE 24 30 13 16 - - 0.6
18/04:30am 16.8 11.9 10.0 64 3.6 SSE 26 32 14 17 - - 0.6
18/04:00am 17.0 11.2 10.8 67 3.3 SSE 32 37 17 20 - - 0.6
18/03:30am 17.1 11.8 11.4 69 3.1 SSE 30 35 16 19 - - 0.6
18/03:00am 17.3 12.2 11.8 70 3.0 SSE 30 35 16 19 - - 0.6
18/02:30am 17.4 11.9 11.9 70 3.0 SE 32 37 17 20 - - 0.6
18/02:00am 17.6 13.1 12.7 73 2.7 SE 28 35 15 19 - - 0.6
18/01:30am 17.6 13.1 12.5 72 2.8 SSE 28 32 15 17 - - 0.6
18/01:00am 17.6 13.0 12.3 71 2.9 SSE 28 32 15 17 - - 0.6
18/12:30am 17.6 13.4 12.5 72 2.8 SSE 26 33 14 18 - - 0.6
18/12:00am 17.5 13.8 12.8 74 2.6 SSE 24 30 13 16 - - 0.6
 
Date/Time
EDT
Temp
°C
App
Temp
°C
Dew
Point
°C
Rel
Hum
%
Delta-T
°C
Wind Press
QNH
hPa
Press
MSL
hPa
Rain since
9am
mm
Dir  Spd
km/h
Gust
km/h
Spd
kts
Gust
kts
17/11:30pm 17.5 13.8 12.8 74 2.6 SSE 24 28 13 15 - - 0.6
17/11:00pm 17.5 14.3 13.0 75 2.5 SSE 22 26 12 14 - - 0.6
17/10:30pm 17.6 14.4 13.1 75 2.5 SSE 22 28 12 15 - - 0.6
17/10:00pm 17.7 13.7 13.0 74 2.6 SSE 26 32 14 17 - - 0.6
17/09:30pm 18.0 13.3 13.1 73 2.8 SSE 30 35 16 19 - - 0.6
17/09:00pm 18.1 13.8 13.2 73 2.8 SSE 28 33 15 18 - - 0.6
17/08:30pm 18.0 13.4 13.5 75 2.5 SSE 30 35 16 19 - - 0.6
17/08:00pm 17.7 14.5 14.2 80 2.0 S 24 30 13 16 - - 0.6
17/07:30pm 17.8 13.7 13.7 77 2.3 S 28 32 15 17 - - 0.6
17/07:00pm 18.3 14.4 13.4 73 2.8 S 26 32 14 17 - - 0.6

Latest Capital City Observations: Canberra | Sydney | Melbourne | Brisbane | Adelaide | Perth | Hobart | Darwin

Other Formats:

Comma delimited format used in spreadsheet applications
http://www.bom.gov.au/fwo/IDN60901/IDN60901.94749.axf

JavaScript Object Notation format (JSON) in row-major order
http://www.bom.gov.au/fwo/IDN60901/IDN60901.94749.json